Date,TemperatureHighF,TemperatureAvgF,TemperatureLowF,DewpointHighF,DewpointAvgF,DewpointLowF,HumidityHigh,HumidityAvg,HumidityLow,PressureMaxIn,PressureMinIn,WindSpeedMaxMPH,WindSpeedAvgMPH,GustSpeedMaxMPH,PrecipitationSumIn
2014-3-30,61.7,54.2,48.8,43.2,40.1,38.0,67,59,48,30.26,30.05,7,1,7,0.00
2014-4-3,51.1,47.8,44.2,48.9,46.1,43.1,97,94,90,29.79,29.57,14,2,14,1.60
2014-4-6,53.5,50.0,43.3,39.1,38.2,36.5,79,64,55,29.98,29.94,0,0,0,12.42
2014-4-7,57.4,53.7,45.4,45.2,39.2,34.7,80,59,44,29.97,29.65,9,1,9,4.14
2014-4-8,51.1,50.7,50.1,45.4,44.9,44.1,81,80,79,29.72,29.71,2,0,2,0.00
2014-4-13,70.2,66.6,64.1,64.1,62.3,61.0,94,86,75,29.66,29.44,9,2,9,0.20
2014-4-15,37.1,35.1,33.2,27.1,26.4,25.3,77,70,62,30.22,30.21,0,0,0,0.10
2014-4-19,75.7,70.7,57.8,43.5,39.8,35.8,57,33,27,30.31,30.17,7,1,7,0.00
2014-4-23,63.3,57.3,49.9,43.8,36.6,31.0,63,47,31,30.19,29.98,8,1,8,0.01
2014-4-25,75.2,68.6,57.5,48.4,46.0,42.3,68,46,31,29.85,29.81,6,0,6,0.01
2014-4-27,66.3,64.9,63.4,63.2,62.0,60.8,92,90,88,29.70,29.62,10,2,10,0.49
2014-4-30,51.0,48.2,45.8,43.4,42.7,42.1,89,81,73,29.85,29.82,3,0,3,0.02
2014-5-1,50.7,46.2,44.9,45.4,42.3,41.0,92,86,73,29.91,29.77,5,0,6,0.01
2014-5-4,67.9,60.6,53.2,47.4,39.4,29.6,50,45,40,30.01,29.93,11,3,11,0.00
2014-5-31,88.3,83.2,74.3,69.0,66.0,63.0,76,57,47,30.12,29.99,9,0,9,0.00
2014-6-1,86.5,75.1,70.7,72.7,62.2,57.5,80,64,58,30.04,29.84,5,0,5,0.00
2014-6-2,84.2,75.6,73.4,71.4,69.3,66.3,87,81,59,29.90,29.80,2,0,6,0.00
2014-6-6,80.3,77.2,69.2,67.1,63.7,59.3,85,64,52,29.98,29.91,4,0,4,0.00
2014-6-8,76.1,71.9,66.8,67.5,64.2,59.2,80,77,69,30.01,29.96,6,0,6,0.00
2014-7-7,85.7,82.3,75.3,77.3,73.0,69.0,84,74,60,29.77,29.71,0,0,0,0.00
2014-7-25,70.3,69.5,68.7,65.6,64.5,63.9,86,84,84,29.91,29.90,4,0,4,0.24
2014-8-2,79.8,75.6,67.1,72.7,69.4,65.0,93,81,68,30.14,30.08,1,0,1,0.00
2014-8-3,81.2,71.4,61.4,72.6,66.8,59.9,98,86,62,30.18,30.06,0,0,0,0.00
2014-8-9,76.5,74.2,72.5,69.4,67.5,66.3,83,80,72,30.01,30.00,2,0,2,0.00
2014-8-29,83.9,78.7,71.1,78.1,74.2,69.4,95,86,76,29.92,29.82,3,0,3,0.00
2014-9-3,75.0,74.8,74.8,69.7,69.5,69.3,84,84,83,29.94,29.93,2,0,2,0.00
2014-9-4,86.4,77.3,67.6,80.1,72.7,66.5,98,86,76,30.03,29.87,1,0,5,0.00
2014-9-7,64.4,63.1,61.9,60.5,59.7,58.9,90,89,87,30.12,30.11,0,0,0,0.00
2014-9-10,65.0,63.5,61.7,62.9,61.3,58.6,94,93,91,29.88,29.80,2,0,2,0.00
2014-9-11,61.1,56.1,52.9,58.4,52.9,48.7,92,89,83,30.27,29.90,3,0,4,0.00